STARLINK-1300, 45374

Orbit data source: Space-Track

STARLINK-1300, 45374 is a payload satellite owned by SpaceX/Seattle (US) in LEO that was launched on Wed, 18 Mar 2020 UTC via an FALCON 9 launch vehicle from the Air Force Eastern Test Range (AFETR). Payload-class satellites include a variety of spacecraft equipped with specific instruments for various scientific and technological missions. These include communications satellites like Starlink; space stations such as the ISS; scientific satellites like the Hubble; Earth observation satellites from companies like Planet Labs, Umbra, and HawkEye 360; GPS; miniature CubeSats for education and research; and military/defense satellites.

Loading next visibility...
Identifier
45374, 2020-019Q
Orbit
LEO
Country
Flag of USUS
Related business
Manufacturer
SpaceX/Seattle
Mission
Partially operational Commercial Communications
Bus & Motor
STARLINK, Unknown motor
Mass
260 kg wet, ~248 kg dry
Launch date (UTC)
2020-03-18 (6 years ago)
Launch vehicle
FALCON 9
Launch site
Air Force Eastern Test Range (AFETR)
Object type
Payload
Rocket body
Debris
Shape & HBR
Box + 1 Pan, 10.1 m
Radar Cross Section
13.562 m², Large (>1 m²)

Expand to show TLE details & history
Last TLE update: 6 hours ago

TLE from 6 hours ago
0 STARLINK-1300
1 45374U 20019Q   26169.91888767  .00036145  00000-0  10074-2 0  9996
2 45374  53.1577  53.5424 0003945 114.8515 245.2899 15.36455359345278
Epoch: 2026-06-18T22:03Z
TLE epoch observation values (Epoch: 2026-06-18T22:03:11.894Z)
Latitude
-0.00003°
Longitude
175.5875°
Altitude
458.631 km
Speed
7.638 km/s
True Right ascension
03h 34m 10s
True Declination
0° 00' 00"
Sunlit
Object was in daylight at epoch
Visualization orbit readout
Latitude
Unknown
Longitude
Unknown
Altitude
Unknown
Speed
Unknown
Apparent Right ascension
Unknown
Apparent Declination
Unknown
Sunlit
N/A
Visualization observer readout
Local Sidereal Time
15:05:08
Azimuth
Unknown
Elevation
Unknown
Doppler factor
Unknown
Orbital elements
Apogee altitude
459.555 km
Perigee altitude
454.162 km
Semi-major axis
6,834.996 km
Eccentricity
0.00039
Inclination
53.1577°
RAAN
53.5424°
Arg. of periapsis
114.8515°
True anomaly
245.24884°
Mean anomaly
245.2899°
Eccentric anomaly
245.26937°
Mean motion
3.84092 °/min
Orbital period
93.73 mins
BSTAR
0.0010074
Loading maneuver chart data...
Computing Atmospheric mass density...

Documentation

Showing up to 5 results
|